Regional Weather Roundup
Issued by NWS

Home | Current Version | Previous Version | Graphics & Text | Print | Product List | Glossary On
Versions: 1 2 3 4 5 6 7 8 9 10 11 12 13 14 15 16 17 18 19 20 21 22 23 24 25 26 27 28 29 30 31 32 33 34 35 36 37 38 39 40 41 42 43 44 45 46 47 48 49 50
000
ASUS43 KDTX 251401
RWRMI
MICHIGAN HOURLY REGIONAL WEATHER ROUNDUP
NATIONAL WEATHER SERVICE DETROIT/PONTIAC MI
1000 AM EDT MON MAY 25 2015

NOTE: "FAIR" INDICATES FEW OR NO CLOUDS BELOW 12,000 FEET WITH NO
SIGNIFICANT WEATHER AND/OR OBSTRUCTION TO VISIBILITY.

MIZ047>049-052>055-059>063-066>070-074>076-081>083-251500-
SOUTHEAST LOWER MICHIGAN

CITY           SKY/WX    TMP DP  RH WIND       PRES   REMARKS
ADRIAN         CLOUDY    71  62  73 SW16      30.01F
ALMA           CLOUDY    73  64  72 S10       29.92F
ANN ARBOR      CLOUDY    71  61  70 S9        30.01S
BAD AXE        CLOUDY    72  59  63 SW13      29.96S
CARO           CLOUDY    73  62  68 S13G21    29.95F
DETROIT CITY   CLOUDY    72  58  61 SW14      30.02S
DETROIT        LGT RAIN  74  61  63 S16       30.02S
FLINT          CLOUDY    74  59  59 S9G20     29.97F
GROSSE ILE     CLOUDY    66  61  82 S9        30.02S
HILLSDALE      CLOUDY    74  63  68 S13G21    29.99F
HOWELL         LGT RAIN  71  59  66 S9G16     29.99S

CITY           SKY/WX    TMP DP  RH WIND       PRES   REMARKS
JACKSON        CLOUDY    71  62  73 S10       29.98F
LAMBERTVILLE   CLOUDY    73  61  64 SW13G18   30.03S
LANSING        CLOUDY    72  61  68 S13       29.96F
LAPEER         FAIR      73  58  59 SW13G24   29.99F
MASON          CLOUDY    70  60  72 S7        29.97F
MONROE         LGT RAIN  73  61  64 SW15G22   30.01S
MT. CLEMENS    CLOUDY    73  60  64 SW10G20   29.99F
PONTIAC        CLOUDY    72  59  63 SW15G22   30.00S
PORT HOPE        N/A     73  60  63 MISG      29.93S
PORT HURON     CLOUDY    72  59  64 SW13      30.01F
TRI CITIES     CLOUDY    74  61  63 S15G22    29.94S
MIDLAND        PTSUNNY   74  60  63 S10       29.91F
TROY           CLOUDY    74  59  58 SW10G18   30.02F
SAGINAW HB     CLOUDY    73  59  60 S16G25    29.94S
$$
MIZ043>046-050>051-056>058-064>065-071>073-077>080-251500-
SOUTHWEST LOWER MICHIGAN

CITY           SKY/WX    TMP DP  RH WIND       PRES   REMARKS
BATTLE CREEK   CLOUDY    73  62  68 S16G31    29.95F
BENTON HARBOR  PTSUNNY   71  65  81 S16G24    29.89S
BIG RAPIDS     CLOUDY    67  62  83 SE8       29.88F
COLDWATER      CLOUDY    73  62  66 S10G29    29.96F
FREMONT        CLOUDY    68  64  86 S5        29.87F
HOLLAND        CLOUDY    74  64  71 S15G21    29.89F
GRAND RAPIDS   CLOUDY    73  63  70 S14       29.91F
IONIA          PTSUNNY   75  62  64 SW17G26   29.92S
KALAMAZOO      CLOUDY    74  63  68 S20G28    29.93F
LUDINGTON      CLOUDY    71  65  80 S18G26    29.84S
MARSHALL       CLOUDY    74  64  69 S10G17    29.95F
MOUNT PLEASANT CLOUDY    71  62  72 S9        29.90F
MUSKEGON       CLOUDY    73  62  68 S20G29    29.87S
SOUTH HAVEN    CLOUDY    73  64  73 S10G25    29.90R
$$
MIZ016>042-251500-
NORTHERN LOWER MICHIGAN

CITY           SKY/WX    TMP DP  RH WIND       PRES   REMARKS
ALPENA         CLOUDY    54  52  93 SE5       29.92F
BEAVER ISLAND  CLOUDY    55  55  97 E12       29.84F
BELLAIRE       CLOUDY    67  62  83 S7        29.84F
CADILLAC       CLOUDY    65  62  90 S7        29.88F
CHARLEVOIX     LGT RAIN  61  61 100 E6        29.87F
FRANKFORT      CLOUDY    70  61  74 S9        29.82F
GAYLORD        CLOUDY    62  60  93 S12       29.89F
HARBOR SPRINGS CLOUDY    58  58  97 E8        29.86F FOG
HOUGHTON LAKE  CLOUDY    65  60  84 S7        29.91S
MANISTEE       CLOUDY    66  63  88 S12       29.84F
OSCODA         LGT RAIN  63  58  82 SW7       29.92S
PELLSTON       CLOUDY    59  57  93 SE6       29.88F
ROGERS CITY    CLOUDY    49  49  99 E5        29.92F
TRAVERSE CITY  LGT RAIN  68  63  84 S6        29.83F
$$
MIZ007>008-015-251500-
EASTERN UPPER MICHIGAN

CITY           SKY/WX    TMP DP  RH WIND       PRES   REMARKS
KINROSS        CLOUDY    55  55 100 E13       29.90F
MACKINAC ISLAN CLOUDY    52  52 100 SE16G25   29.88F
NEWBERRY       LGT RAIN  56  55  97 SE8       29.86F
S. S. MARIE    RAIN      56  54  93 E9G17     29.91F FOG
$$
MIZ004>006-011>014-085-251500-
CENTRAL UPPER MICHIGAN

CITY           SKY/WX    TMP DP  RH WIND       PRES   REMARKS
MANISTIQUE     LGT RAIN  55  54  96 E13       29.83F
ESCANABA       CLOUDY    55  52  88 E13       29.78F
MENOMINEE      CLOUDY    54  52  94 SE6       29.76F
SAWYER-GWINN   DRIZZLE   57  55  94 SE8       29.79F
$$
MIZ001>003-009>011-084-251500-
WESTERN UPPER MICHIGAN

CITY           SKY/WX    TMP DP  RH WIND       PRES   REMARKS
IRON MOUNTAIN  LGT RAIN  57  55  93 SE7       29.75F
HOUGHTON       LGT RAIN  51  49  92 E14G23    29.78F VSB<1/4
COPPER HARBOR    N/A     56  54  93 S5        29.82F
IRONWOOD       CLOUDY    57  57 100 E8        29.68F
$$

ABBREVIATIONS USED IN REMARKS
   TC - TEMPERATURE IN CELSIUS
  WCI - WIND CHILL INDEX
   HX - HEAT INDEX
  VSB - VISIBILITY



USA.gov is the U.S. government's official web portal to all federal, state and local government web resources and services.